Aeroporto :
LOGIN :

Iscrizione | Disclaimer

   EN    FR    IT 

 










Sommario :    VFR   VFR Marginale   IFR   IFR Intensivo   IFR Molto Intensivo
Visibilità : 
Base nubi : 
>= 8 km
>= 3000ft
5 / 8 km
1000 / 3000 ft
1500m / 5 km
500 / 1000 ft
800 / 1500m
200 / 500 ft
< 800m
< 200 ft
Simboli :   Temporali  Nebbia  Neve Forte  Precipitazioni Forti  Vento > 20 kt
SIGMETs :   Varie  Temporali  Ghiacco  Turbolenza  Onda orograficha  Ceneri Vulcaniche






- Altitudine del aeroporto : 19 ft
- Codice IATA : BEB


EGPL - Benbecula

ULTIMO METAR :
  • 290620Z AUTO 35002KT 9999 OVC048/// 03/M02 Q1050

METARs OBSOLETI :
  • 290550Z AUTO 35003KT 9999 OVC048/// 03/M02 Q1050
  • 290520Z AUTO 03003KT 9999 NCD 02/M02 Q1050
  • 290450Z AUTO 01002KT 9999 OVC048/// 02/M02 Q1050
  • 290420Z AUTO 03002KT 9999 OVC048/// 02/M03 Q1050
  • 290350Z AUTO 03004KT 9999 NCD 02/M02 Q1050

TAF TAF EGPL
Valido dal 29 a 06 ore il 29 a 15 ore UTC


290458Z 2906/2915 29009KT 9999 BKN045
PROB30
TEMPO 2912/2915 30015G25KT
ATIS : +44 1870 604 818



MetMap, La meteo Aeronautica in un colpo d'occhio ! - Copyright ORBIFLY Dicembre 2007 - Disclaimer

ORBIFLY MET'MAP TEAM :

Programmazione e sviluppo : Alexandra Zaïnal
Concezione : Baudouin d'Aumeries
Aiuto per la programmazione : Marc-Olivier Méhu
Supporto tecnico e logistico : Manuel Goepfert
Aiuto per la traduzione : Arnaldo La Scala

Contatto : metmap@orbifly.com




FONTI E CREDITI :

   NOAA